Location: Gebenbach
(49.5378°N, 11.8735°E)
Time: 04:20:30
(UTC+00:00)

ERS-2 - Pass Details

Date: 29 October 2020
Orbit: 493 x 498 km, 98.6° (Epoch: 25 November)

Event Time Altitude Azimuth Distance (km) Brightness Sun altitude
Rises 17:10:41 0° 11° (NNE) 2,590 5.6 -12.8°
Reaches altitude 10° 17:12:47 10° 8° (N) 1,702 4.7 -13.1°
Maximum altitude 17:16:23 61° 289° (WNW) 567 2.6 -13.7°
Drops below altitude 10° 17:19:58 10° 208° (SSW) 1,689 5.2 -14.3°
Sets 17:22:03 0° 205° (SSW) 2,567 6.2 -14.6°
